CAPE
0 0 0 0 0 0 0 0 0 1 0 0 0 0 0 0 0 0 2 85 11 0 0 0 0 0 0 1 0 0 2 0 0 0 0 0 1 0 0 0 0 0 0 0 0 1 0 0 6 1 9 5 12 10
1 0 0 0 0 0 0 0 0 0 0 0 0 0 0 0 0 0 0 37 61 6 0 2 1 17 32 50 25 3 0 1 1 0 0 0 0 0 0 1 0 0 0 0 0 0 0 0 1 0 0 6 14 15
0 0 0 0 0 0 0 0 0 0 0 0 0 0 0 0 0 0 0 0 0 0 0 0 0 0 5 24 32 27 5 16 23 4 0 0 0 0 0 0 0 0 0 0 0 0 0 0 0 0 0 27 13 4
0 0 0 0 0 0 0 0 0 0 0 0 0 0 0 0 0 0 0 9 5 0 3 0 0 0 0 7 25 58 59 54 51 18 12 1 0 0 0 0 0 0 1 0 0 0 0 0 0 10 4 5 1 0
0 0 0 0 0 0 1 1 1 0 0 0 0 0 0 0 0 0 0 0 13 24 2 0 0 0 0 0 6 13 33 18 13 8 3 0 0 0 0 0 1 0 0 6 0 0 8 0 9 12 7 0 3 3
0 0 0 0 0 0 0 0 1 1 1 0 0 0 0 0 0 1 0 0 0 7 7 4 0 0 0 0 0 0 6 19 25 9 0 2 5 7 1 6 0 0 0 5 12 13 25 5 0 0 4 3 0 0
0 0 0 0 0 0 0 0 0 1 1 0 0 0 0 0 1 0 0 0 1 0 4 3 0 0 0 0 0 0 0 10 24 18 7 7 10 8 0 0 0 0 0 0 3 18 9 1 0 0 0 0 0 14
0 0 0 0 0 0 0 0 0 0 0 0 0 0 2 2 2 1 0 0 1 0 0 2 0 0 0 0 0 0 0 0 0 2 0 5 0 2 0 0 0 0 0 2 29 6 0 0 0 0 0 0 4 12
0 0 0 0 0 0 0 0 0 0 0 0 0 0 0 0 0 1 0 0 0 0 3 1 0 0 0 0 0 0 0 0 0 0 0 0 0 0 0 0 2 0 13 3 0 0 0 0 0 0 1 0 0 0
0 0 0 0 0 0 0 0 0 0 0 0 0 0 0 0 0 0 0 0 0 0 0 0 1 0 0 0 0 0 1 0 3 0 0 2 0 0 0 0 0 0 0 0 0 0 0 1 0 0 0 0 0 0
0 0 0 0 0 0 0 0 0 0 0 0 0 1 0 1 0 0 0 0 0 0 0 0 0 0 0 0 0 1 0 1 0 0 1 0 0 0 0 0 1 0 0 0 0 0 0 0 0 0 0 0 0 0
0 0 0 0 0 0 0 0 0 0 0 0 0 0 0 2 1 0 0 1 1 0 1 1 0 0 1 3 0 0 0 0 0 0 0 0 0 0 1 4 0 0 0 0 0 0 0 0 0 0 0 0 0 0
0 6 3 0 0 0 0 0 0 0 1 3 0 0 1 1 0 0 0 0 0 1 0 0 0 0 1 0 0 0 1 0 0 0 0 0 0 1 0 0 0 0 0 0 0 0 0 0 0 0 0 0 0 0
0 2 1 0 0 0 0 0 0 0 0 0 0 0 0 0 0 0 0 0 1 0 0 0 0 0 0 0 0 0 0 0 4 0 0 0 0 0 0 0 0 0 0 0 0 0 0 0 0 0 0 0 0 0
9 5 1 0 0 0 0 0 0 0 0 0 0 0 0 0 0 0 0 1 0 0 1 1 0 0 0 0 0 0 0 0 0 0 0 0 0 0 0 0 0 0 0 0 0 0 0 0 0 0 0 0 0 0
1 0 0 0 0 0 0 0 0 0 0 0 0 0 0 0 0 0 0 0 1 0 0 0 0 0 0 0 0 0 0 0 0 0 0 0 0 0 0 0 0 0 0 0 0 0 0 0 0 0 0 0 0 0
0 0 1 0 0 0 0 0 0 0 0 0 0 0 0 0 0 0 0 0 0 0 0 0 0 0 0 0 0 0 0 0 0 0 0 0 0 0 0 0 0 0 0 0 0 0 3 0 0 0 0 0 0 0
0 0 0 0 0 5 0 0 0 0 0 0 0 0 0 0 0 0 0 0 0 0 0 0 0 0 0 0 0 0 0 0 0 0 0 0 0 0 0 0 0 0 0 0 0 0 2 1 0 0 0 0 0 0
1 0 0 0 3 1 0 0 0 0 0 0 0 0 0 0 0 0 0 0 0 3 0 0 0 0 0 0 0 0 0 0 5 0 0 0 0 0 0 0 0 0 0 0 0 1 0 1 0 0 0 0 0 0
3 0 0 2 3 0 0 0 0 0 0 0 0 0 0 0 0 0 0 0 0 0 2 2 0 0 0 0 0 0 0 0 0 0 0 0 0 0 0 0 0 0 0 0 0 0 0 0 0 0 0 0 0 0
0 0 9 5 0 2 0 0 0 0 0 0 0 0 0 0 0 0 0 0 1 2 0 0 0 0 0 0 0 0 0 0 0 0 0 0 0 0 0 0 0 0 0 0 0 0 4 1 0 0 0 0 0 0
2 2 1 2 0 0 0 0 0 0 0 0 0 0 0 0 0 0 0 0 0 0 0 0 0 0 0 0 0 0 0 5 7 1 0 0 0 0 0 0 0 0 0 1 1 0 0 1 0 0 0 0 0 0
1 0 0 0 0 0 0 0 0 0 0 0 0 0 0 0 0 0 0 0 0 0 0 0 0 0 0 0 0 0 0 0 0 0 0 0 0 0 0 0 0 2 1 1 0 0 0 0 0 0 0 0 0 0
0 0 0 0 0 0 0 2 1 0 0 0 0 0 0 0 0 0 0 0 0 0 0 0 0 0 0 0 0 0 0 0 2 0 0 0 0 0 0 1 0 0 0 0 0 0 0 0 0 0 0 0 0 0
0 0 0 0 0 0 0 0 1 0 0 0 0 0 0 0 0 0 0 0 0 0 0 0 0 0 0 0 0 0 0 0 0 0 0 0 1 1 0 0 0 1 0 1 0 0 0 0 0 0 0 0 1 0
0 0 0 0 0 0 0 0 0 0 0 0 0 0 0 0 0 0 0 0 0 0 0 0 0 0 0 0 0 0 0 0 0 0 0 0 0 2 2 1 2 1 0 0 0 0 0 0 0 0 0 0 0 0
0 0 0 0 0 0 0 0 0 0 0 0 0 0 0 1 0 0 0 0 0 0 2 4 0 0 0 0 0 0 0 0 0 0 0 0 0 0 0 0 1 0 0 0 0 0 0 0 0 0 0 0 0 0
0 0 0 0 0 0 0 0 0 0 0 0 0 0 0 0 0 0 0 10 6 2 0 0 0 0 0 0 0 0 0 0 0 0 0 0 0 0 0 1 1 0 0 0 0 0 1 1 0 0 0 0 0 0
0 0 0 0 0 0 0 0 0 0 0 0 0 0 0 0 0 0 0 0 0 2 6 3 0 0 0 0 0 0 0 0 1 0 0 0 0 0 0 0 0 0 0 0 1 0 0 0 0 0 0 0 0 0
0 0 0 0 0 0 0 0 0 0 0 1 4 1 0 0 0 0 0 0 0 0 0 0 0 0 0 1 0 0 0 0 0 2 1 0 0 0 0 0 0 0 0 0 1 0 0 0 0 0 0 0 0 0
0 0 0 0 0 0 0 0 0 0 0 0 0 0 0 0 0 0 0 0 0 0 0 0 0 0 0 0 0 0 0 0 0 0 0 0 0 0 0 0 0 0 0 0 0 0 0 0 0 0 0 0 0 0
0 1 2 0 0 0 0 4 0 0 0 0 0 0 0 0 0 0 2 0 2 2 0 0 0 0 0 0 0 0 0 0 0 0 0 0 0 0 0 0 0 0 0 0 0 0 0 0 0 0 0 0 0 0
0 0 0 5 0 0 0 0 1 0 0 0 0 0 0 0 6 0 0 0 0 0 0 0 0 0 0 0 0 0 0 0 0 0 0 0 0 0 0 0 0 0 0 0 0 0 0 0 0 0 0 0 0 0
CIN
-0 -0 -0 -0 -0 -0 -0 -0 -0 -40 -0 -0 -0 -0 -0 -0 -0 -0 -13 -51 -14 -0 -0 -0 -0 -0 -0 -6 -0 -1 -8 -0 -0 -0 -0 -0 -0 -0 -0 -0 -0 -0 -0 -0 -0 -2 -0 -0 -17 -6 -12 -15 -23 -24
-12 -0 -0 -0 -0 -0 -0 -0 -0 -0 -0 -0 -0 -0 -0 -0 -0 -0 -0 -24 -35 -21 -0 -4 -6 -61 -39 -36 -24 -28 -4 -4 -35 -0 -0 -0 -0 -0 -0 -8 -0 -3 -0 -0 -0 -0 -0 -0 -49 -0 -0 -28 -17 -18
-0 -0 -0 -0 -0 -0 -0 -0 -0 -0 -0 -0 -0 -0 -0 -0 -0 -0 -0 -2 -0 -0 -0 -0 -0 -0 -79 -57 -45 -16 -48 -35 -25 -45 -0 -0 -0 -0 -0 -0 -0 -0 -0 -0 -0 -0 -0 -0 -0 -0 -2 -10 -16 -19
-0 -0 -0 -0 -0 -0 -0 -0 -0 -0 -0 -0 -0 -0 -0 -0 -0 -0 -0 -41 -9 -0 -12 -0 -0 -0 -12 -77 -60 -37 -28 -27 -26 -33 -15 -5 -4 -0 -0 -3 -0 -0 -1 -0 -2 -0 -0 -0 -0 -20 -18 -22 -11 -0
-0 -0 -0 -0 -0 -0 -0 -0 -0 -0 -0 -0 -0 -0 -0 -0 -0 -0 -0 -2 -10 -2 -17 -0 -0 -0 -0 -27 -74 -64 -39 -31 -32 -8 -4 -3 -4 -2 -0 -2 -9 -2 -0 -3 -0 -0 -14 -0 -23 -23 -17 -0 -0 -0
-0 -0 -0 -0 -0 -0 -0 -0 -0 -0 -0 -0 -0 -0 -0 -0 -0 -0 -0 -0 -0 -25 -4 -1 -0 -0 -0 -0 -0 -0 -44 -9 -17 -11 -2 -11 -14 -7 -9 -0 -0 -0 -0 -11 -9 -22 -16 -28 -1 -0 -0 -0 -0 -0
-0 -0 -0 -0 -0 -0 -0 -0 -0 -0 -0 -0 -0 -0 -0 -0 -0 -0 -0 -0 -0 -0 -10 -4 -0 -0 -0 -0 -0 -0 -0 -4 -7 -1 -2 -4 -11 -14 -0 -0 -0 -0 -0 -0 -38 -25 -9 -0 -0 -0 -0 -0 -0 -0
-0 -0 -0 -0 -0 -0 -0 -0 -0 -0 -0 -0 -0 -0 -0 -0 -0 -0 -0 -0 -0 -0 -0 -0 -0 -0 -0 -0 -0 -0 -0 -0 -0 -2 -0 -22 -1 -41 -9 -0 -0 -0 -0 -12 -23 -18 -0 -0 -0 -0 -0 -0 -4 -21
-0 -0 -0 -0 -0 -0 -0 -0 -0 -0 -0 -0 -0 -0 -0 -0 -0 -0 -0 -0 -0 -0 -0 -0 -0 -0 -0 -0 -0 -0 -0 -0 -0 -0 -1 -0 -0 -5 -0 -0 -50 -0 -9 -29 -0 -0 -0 -0 -0 -0 -0 -0 -0 -5
-0 -0 -0 -0 -0 -0 -0 -0 -0 -0 -0 -0 -0 -0 -0 -0 -0 -0 -0 -0 -0 -0 -0 -0 -0 -0 -0 -0 -0 -0 -0 -0 -0 -0 -0 -0 -0 -0 -0 -0 -0 -0 -0 -0 -0 -0 -0 -4 -0 -0 -0 -0 -0 -0
-0 -0 -0 -0 -0 -0 -0 -0 -0 -0 -0 -0 -0 -0 -0 -0 -0 -0 -0 -0 -0 -0 -0 -0 -0 -0 -0 -0 -0 -0 -0 -0 -0 -0 -2 -0 -0 -0 -0 -0 -13 -0 -0 -1 -0 -0 -0 -0 -0 -0 -0 -0 -0 -0
-0 -0 -0 -0 -0 -0 -0 -0 -0 -0 -0 -0 -0 -0 -0 -0 -0 -0 -0 -0 -0 -0 -0 -0 -0 -0 -0 -0 -0 -0 -0 -0 -0 -0 -4 -0 -0 -0 -4 -38 -0 -0 -0 -0 -0 -0 -0 -0 -0 -0 -0 -0 -0 -0
-0 -5 -6 -0 -0 -0 -0 -0 -0 -0 -11 -3 -0 -0 -0 -0 -0 -0 -0 -0 -0 -2 -0 -1 -0 -0 -0 -0 -0 -0 -0 -0 -0 -0 -0 -0 -0 -4 -0 -0 -0 -0 -0 -0 -0 -0 -0 -0 -0 -0 -0 -0 -0 -0
-0 -5 -11 -0 -0 -0 -0 -0 -0 -0 -0 -0 -0 -0 -0 -0 -0 -0 -0 -0 -0 -0 -0 -0 -0 -0 -0 -0 -0 -0 -0 -0 -1 -0 -0 -0 -0 -0 -0 -0 -0 -0 -0 -0 -0 -0 -0 -0 -0 -0 -0 -0 -0 -0
-8 -13 -3 -0 -0 -0 -0 -0 -0 -0 -0 -0 -0 -0 -0 -0 -0 -0 -0 -0 -0 -0 -0 -0 -0 -0 -0 -0 -0 -0 -0 -0 -0 -0 -0 -0 -0 -0 -0 -0 -0 -0 -0 -0 -0 -0 -0 -0 -0 -0 -0 -0 -0 -0
-0 -0 -0 -0 -0 -0 -0 -0 -0 -0 -0 -0 -0 -0 -0 -0 -0 -0 -0 -1 -0 -0 -0 -0 -0 -0 -0 -0 -0 -0 -0 -0 -0 -0 -0 -0 -0 -0 -0 -3 -0 -0 -0 -0 -0 -0 -0 -0 -0 -0 -0 -0 -0 -0
-0 -0 -1 -1 -0 -0 -0 -0 -0 -0 -0 -0 -0 -0 -3 -0 -0 -0 -0 -0 -2 -0 -0 -0 -0 -0 -0 -0 -0 -0 -0 -0 -0 -0 -0 -0 -0 -0 -0 -0 -0 -0 -0 -0 -0 -0 -25 -0 -0 -0 -0 -0 -0 -0
-0 -0 -0 -0 -0 -2 -0 -0 -0 -0 -0 -0 -0 -0 -0 -0 -1 -2 -0 -0 -0 -0 -0 -0 -0 -0 -0 -0 -0 -0 -0 -0 -0 -0 -0 -0 -0 -0 -0 -0 -0 -0 -0 -0 -0 -0 -7 -25 -0 -0 -0 -0 -0 -0
-22 -5 -1 -0 -1 -0 -0 -0 -0 -0 -0 -0 -0 -0 -0 -0 -0 -0 -0 -0 -0 -4 -0 -0 -0 -0 -0 -0 -0 -0 -0 -0 -23 -0 -0 -0 -0 -0 -0 -0 -0 -0 -0 -0 -0 -10 -0 -18 -0 -0 -1 -0 -0 -0
-7 -0 -0 -11 -9 -0 -0 -0 -0 -0 -2 -1 -0 -0 -0 -0 -0 -0 -0 -0 -0 -2 -2 -4 -0 -0 -0 -0 -0 -0 -0 -0 -0 -0 -0 -0 -0 -0 -0 -0 -0 -0 -0 -0 -0 -0 -0 -0 -0 -0 -0 -0 -0 -0
-0 -0 -8 -1 -0 -0 -1 -0 -0 -0 -0 -0 -0 -0 -0 -0 -0 -0 -0 -0 -0 -1 -0 -0 -0 -0 -0 -0 -0 -0 -0 -0 -0 -10 -0 -0 -0 -0 -0 -0 -0 -0 -0 -0 -0 -10 -18 -16 -0 -0 -0 -0 -0 -0
-2 -4 -0 -0 -0 -0 -0 -0 -0 -0 -0 -0 -0 -0 -0 -0 -0 -0 -0 -0 -0 -0 -0 -0 -0 -0 -0 -0 -0 -0 -1 -8 -10 -10 -0 -0 -0 -0 -7 -0 -0 -3 -0 -5 -4 -0 -1 -3 -0 -0 -0 -0 -0 -0
-2 -2 -0 -0 -0 -0 -0 -0 -0 -0 -0 -0 -0 -0 -0 -0 -0 -0 -0 -0 -0 -0 -0 -0 -0 -0 -0 -0 -0 -0 -4 -0 -0 -0 -0 -0 -39 -0 -0 -1 -2 -0 -0 -0 -0 -1 -0 -0 -0 -0 -0 -0 -0 -0
-0 -0 -0 -0 -0 -0 -0 -0 -1 -0 -0 -0 -0 -0 -0 -0 -0 -0 -0 -0 -0 -0 -0 -0 -0 -0 -0 -0 -0 -0 -0 -0 -18 -3 -0 -0 -0 -0 -0 -0 -0 -0 -2 -0 -0 -2 -0 -0 -0 -0 -0 -0 -0 -1
-0 -0 -0 -0 -0 -1 -1 -0 -0 -0 -0 -0 -0 -0 -0 -0 -0 -0 -0 -0 -0 -0 -0 -0 -0 -0 -0 -0 -0 -0 -0 -1 -0 -0 -0 -0 -0 -0 -0 -2 -1 -2 -0 -4 -0 -0 -0 -0 -0 -0 -0 -0 -1 -0
-0 -0 -0 -0 -0 -0 -0 -0 -0 -0 -0 -0 -0 -0 -0 -0 -0 -0 -0 -0 -0 -0 -0 -0 -0 -0 -0 -0 -0 -0 -0 -0 -0 -0 -0 -1 -0 -0 -0 -0 -0 -0 -2 -0 -0 -0 -0 -0 -0 -0 -0 -1 -0 -0
-0 -0 -0 -0 -0 -0 -0 -0 -0 -0 -0 -0 -0 -0 -0 -4 -0 -0 -0 -0 -0 -0 -13 -17 -22 -20 -0 -0 -0 -0 -0 -0 -0 -0 -0 -0 -0 -0 -0 -0 -0 -0 -0 -0 -0 -0 -0 -0 -0 -0 -0 -0 -0 -0
-0 -0 -0 -0 -0 -0 -0 -0 -0 -0 -0 -0 -0 -0 -0 -0 -0 -0 -0 -23 -24 -17 -2 -11 -6 -0 -0 -0 -0 -0 -0 -2 -0 -0 -0 -0 -0 -0 -0 -0 -0 -0 -0 -0 -0 -0 -0 -0 -0 -0 -0 -0 -0 -4
-0 -0 -0 -0 -0 -0 -0 -0 -0 -0 -0 -0 -0 -0 -0 -0 -0 -0 -0 -0 -0 -22 -13 -8 -0 -0 -0 -0 -0 -0 -0 -0 -1 -0 -0 -0 -1 -0 -0 -0 -0 -0 -0 -0 -0 -0 -0 -0 -0 -0 -0 -0 -0 -4
-0 -0 -0 -0 -0 -0 -0 -0 -0 -0 -0 -10 -6 -1 -0 -0 -0 -0 -0 -0 -0 -0 -0 -0 -0 -0 -0 -0 -0 -0 -1 -0 -5 -0 -1 -0 -0 -0 -0 -1 -1 -0 -0 -0 -0 -0 -0 -0 -0 -0 -0 -0 -0 -0
-0 -0 -0 -0 -0 -0 -0 -0 -0 -0 -0 -0 -0 -0 -0 -0 -0 -0 -0 -0 -0 -0 -0 -0 -0 -0 -0 -0 -1 -0 -0 -0 -0 -0 -0 -0 -0 -2 -1 -0 -0 -0 -0 -0 -0 -0 -0 -0 -0 -0 -0 -0 -0 -0
-0 -13 -16 -0 -0 -0 -1 -11 -0 -0 -0 -0 -0 -0 -0 -1 -0 -0 -0 -0 -0 -0 -0 -0 -0 -0 -0 -0 -0 -0 -0 -0 -0 -0 -0 -0 -0 -0 -0 -0 -0 -0 -0 -0 -0 -0 -0 -0 -0 -0 -0 -0 -0 -0
-0 -0 -6 -3 -3 -0 -0 -1 -3 -0 -0 -0 -0 -0 -0 -4 -0 -0 -0 -0 -0 -0 -0 -0 -0 -0 -0 -0 -0 -0 -0 -0 -0 -0 -0 -0 -0 -0 -0 -0 -0 -0 -0 -0 -0 -0 -0 -0 -0 -0 -0 -0 -0 -0
Wind_Speed
31 33 32 30 31 32 30 30 28 26 26 25 23 21 21 20 19 19 21 20 20 21 24 22 21 22 24 24 27 23 27 24 23 25 26 27 25 26 28 26 29 30 33 34 32 34 42 24 35 44 42 39 42 40
28 28 30 29 30 31 31 30 29 27 27 26 25 23 22 21 21 20 23 20 21 21 23 23 23 22 21 21 25 23 21 23 21 26 26 26 31 29 30 36 25 33 27 33 30 34 32 39 43 40 42 43 42 40
22 24 26 27 27 25 28 30 30 28 28 23 23 23 22 21 21 21 24 23 23 26 30 28 27 24 25 24 21 27 25 23 24 22 27 28 30 25 33 34 33 29 28 37 41 38 42 44 45 40 39 39 42 38
14 17 21 24 25 25 24 27 27 26 25 25 23 22 23 22 20 20 24 23 21 23 32 33 26 29 27 22 21 20 22 24 26 26 30 30 33 25 34 36 36 31 31 40 41 42 45 41 39 42 44 39 40 37
13 13 16 18 21 25 27 26 26 26 25 25 24 24 23 22 20 22 25 24 21 24 33 32 30 27 24 22 23 23 24 25 27 27 30 33 30 32 37 35 37 28 35 37 45 41 43 46 44 44 40 40 33 34
14 13 15 16 17 19 21 24 27 25 25 25 23 21 19 18 18 23 32 28 23 22 28 37 29 28 25 24 23 23 22 23 24 26 31 30 27 27 38 41 32 30 29 31 39 40 43 45 41 40 38 33 37 38
16 16 16 17 17 17 18 20 22 23 23 25 24 22 22 17 17 25 24 20 14 15 23 33 36 27 23 22 22 24 23 24 25 28 31 32 31 27 34 45 40 38 36 40 41 40 41 33 34 33 32 34 36 37
16 16 16 15 16 17 17 18 19 19 19 20 21 20 19 16 18 23 21 20 15 19 22 27 32 29 24 26 26 25 25 24 24 28 29 32 32 31 39 32 38 38 40 38 35 29 31 31 38 37 35 35 38 38
16 16 17 17 18 18 17 18 17 17 16 14 14 10 14 18 20 20 18 20 21 19 22 26 31 36 22 25 25 27 25 31 28 32 31 29 33 38 38 41 43 41 39 36 33 33 34 33 37 38 36 38 42 42
18 16 17 17 17 17 16 15 14 10 7 8 14 17 22 20 11 15 21 22 22 23 24 32 27 36 28 28 29 29 28 31 37 33 28 33 41 36 36 37 36 33 29 29 33 32 29 36 38 41 40 40 42 44
19 17 16 16 15 15 14 13 11 14 16 15 18 19 15 12 18 20 24 25 25 29 27 28 27 29 25 30 28 25 30 29 38 36 33 38 42 36 34 32 23 23 21 23 25 32 35 36 41 42 43 44 44 41
19 18 15 15 15 14 13 12 11 16 16 16 12 12 15 20 22 24 27 25 27 31 24 26 25 24 23 21 24 24 30 29 38 30 34 41 37 35 30 24 23 22 23 25 30 36 39 43 43 42 43 44 42 40
17 15 15 15 14 13 12 12 16 14 10 14 16 17 18 20 27 28 31 28 27 23 22 22 23 23 22 23 24 26 30 33 30 33 38 35 34 30 28 26 26 27 29 32 38 41 43 44 44 42 42 39 39 37
15 15 14 13 13 13 13 14 14 15 17 18 19 24 23 24 25 25 26 24 22 21 19 18 21 22 21 24 23 29 28 28 34 38 38 34 32 31 31 30 32 35 35 39 40 42 45 44 43 40 38 37 37 36
11 11 11 12 12 13 15 15 15 17 18 20 20 26 25 21 20 20 20 20 19 19 18 19 20 21 24 26 25 28 31 34 32 34 30 33 33 33 33 34 36 38 39 40 40 42 43 41 40 40 38 35 33 30
5 7 14 9 10 10 11 12 15 17 19 20 21 23 20 20 21 21 21 20 17 16 18 20 23 26 27 26 29 31 34 38 33 31 34 37 37 37 38 38 40 39 37 38 39 40 39 39 38 39 39 36 31 25
9 15 6 5 6 7 9 13 16 19 21 22 23 21 21 21 22 21 19 18 15 18 23 23 28 29 25 30 32 28 35 35 35 38 39 40 43 44 43 43 41 37 37 40 42 39 38 37 36 38 39 36 26 17
13 5 4 5 6 8 12 14 15 18 22 21 22 21 20 20 21 20 19 18 18 22 23 27 25 29 33 37 38 34 35 38 40 41 45 46 44 42 42 42 41 39 40 42 42 39 39 36 37 37 34 31 21 13
6 4 3 4 5 10 14 15 15 21 20 20 18 18 20 21 20 20 20 20 22 22 23 25 28 32 32 32 35 37 38 39 40 41 43 43 42 41 40 40 41 42 42 42 41 40 35 29 30 35 31 23 15 12
1 2 4 4 12 12 14 15 16 18 22 20 19 21 22 22 22 21 21 21 22 23 25 28 31 31 33 34 33 35 38 40 43 44 43 41 39 39 40 41 42 41 39 37 34 32 27 25 28 31 23 15 13 10
5 6 6 10 14 15 15 15 17 18 20 21 19 18 21 20 19 20 21 18 20 24 27 25 28 30 30 31 33 34 35 35 35 33 35 38 42 41 42 41 37 36 34 33 31 27 20 16 20 18 13 11 13 9
7 3 10 12 15 17 18 16 17 17 19 21 22 22 24 24 24 22 20 22 26 24 25 28 29 30 30 30 31 30 30 31 32 33 34 35 37 40 39 39 39 33 31 28 22 16 12 13 10 10 10 10 10 11
4 9 11 13 15 16 19 15 17 18 20 21 20 23 24 24 22 17 24 22 23 22 23 25 25 24 26 28 29 30 29 29 30 30 31 32 35 34 39 38 34 30 24 22 24 17 10 14 11 9 7 10 11 13
9 9 12 13 13 17 15 16 16 19 20 21 23 26 24 22 22 24 28 26 25 29 26 23 24 26 27 26 26 26 27 25 26 27 27 31 36 38 34 32 30 27 30 28 25 21 18 15 13 11 11 12 11 12
9 10 13 14 12 15 16 18 19 21 25 23 26 26 25 22 27 28 28 31 30 26 24 22 21 21 21 23 24 24 23 23 24 23 26 29 33 35 34 28 29 28 29 23 22 22 19 16 14 14 12 10 10 11
14 11 10 11 14 16 17 23 22 24 25 24 23 23 22 23 24 23 27 27 25 24 23 21 20 20 19 16 19 25 29 22 23 24 27 27 29 29 34 37 37 32 27 19 18 17 16 13 12 12 12 11 10 11
9 11 13 10 14 17 22 23 22 23 24 24 25 24 24 23 23 24 24 22 23 23 24 20 18 17 18 21 24 26 26 25 26 27 27 28 27 22 17 20 22 25 30 23 16 14 14 14 11 10 10 11 10 11
10 15 14 16 19 19 24 25 24 24 24 24 25 23 22 21 23 22 22 22 24 23 26 28 25 23 22 24 25 27 30 27 27 26 25 22 23 24 23 21 18 19 22 20 16 14 12 12 10 9 8 9 10 8
18 17 17 19 19 21 20 20 21 22 22 21 19 18 18 18 23 31 28 25 27 30 37 35 29 26 27 28 27 28 27 26 28 31 33 30 31 27 30 33 31 27 21 19 16 13 13 11 9 8 7 8 10 12
24 19 21 22 20 21 20 22 22 22 19 17 13 14 30 27 20 19 15 16 25 24 22 22 23 22 23 24 24 24 24 24 23 24 26 28 31 33 32 31 29 24 19 17 16 17 19 15 11 10 9 10 11 13
24 20 19 19 19 19 22 26 25 24 24 20 18 16 24 16 15 26 21 25 26 24 23 22 21 20 19 20 23 25 25 22 24 26 27 28 28 28 28 28 27 25 23 21 19 19 19 17 15 13 13 15 16 18
18 17 16 14 14 21 27 29 33 18 29 21 16 16 14 19 20 26 28 28 26 24 23 22 21 21 23 23 24 20 20 22 24 24 25 26 27 27 27 26 25 23 22 21 21 20 21 21 19 17 17 17 17 18
19 19 20 26 29 29 26 25 29 36 18 13 13 15 13 16 23 21 22 25 24 24 26 26 26 24 25 22 22 20 20 20 21 23 24 25 26 26 26 26 26 25 24 22 22 22 22 22 22 22 20 18 18 19
Wind_Direction
246 243 242 245 247 249 252 255 258 261 265 268 275 282 289 295 302 305 300 313 309 306 306 310 314 313 315 316 314 325 320 319 322 322 323 324 323 327 326 326 329 327 328 326 328 325 327 351 337 333 330 331 331 330
248 250 243 244 249 251 252 255 258 261 264 269 272 277 283 288 294 300 295 310 309 304 305 312 313 312 312 318 315 316 314 317 319 318 319 320 316 319 319 318 323 318 320 322 320 317 323 325 324 329 328 325 328 328
254 252 248 248 251 255 255 255 257 261 263 269 272 274 279 284 288 293 294 299 304 302 300 301 303 311 309 307 309 303 306 309 309 314 314 314 312 320 315 317 318 320 320 316 315 316 315 320 323 326 326 327 329 333
265 258 256 255 255 254 256 258 259 262 265 267 270 273 277 281 285 288 287 294 299 305 297 298 309 303 308 305 303 304 302 305 307 307 304 306 308 312 312 312 308 313 321 318 312 315 316 319 323 326 328 331 329 330
265 266 264 266 264 260 259 261 265 265 265 267 270 273 276 279 281 284 285 289 293 296 298 301 304 305 306 308 304 303 299 298 302 301 300 300 307 310 309 310 309 314 312 314 311 317 317 316 325 327 329 331 334 335
263 271 273 275 276 272 269 267 265 266 265 268 272 274 274 278 282 288 286 282 281 292 299 294 308 307 307 305 301 297 297 300 299 301 303 305 303 304 307 305 310 312 314 310 312 316 315 320 325 331 334 338 339 339
264 268 277 279 281 282 283 278 276 272 269 268 270 273 276 274 276 276 286 304 296 293 297 298 299 308 313 313 312 308 303 301 299 300 298 300 303 304 303 301 310 312 312 313 313 315 317 325 329 333 332 333 334 334
263 267 273 280 283 289 289 289 288 284 278 275 275 278 280 275 284 281 288 297 291 299 301 298 298 303 316 312 310 317 312 311 306 304 308 307 309 303 301 307 312 314 314 315 321 327 330 333 332 332 333 335 335 332
260 265 273 280 285 289 294 294 296 296 291 280 279 286 290 287 280 285 296 296 299 294 292 294 293 298 318 316 317 318 317 307 311 303 305 308 304 301 308 311 312 314 316 321 326 327 329 330 332 332 333 333 332 333
259 266 274 279 287 291 293 298 301 311 316 301 290 287 283 288 295 302 299 294 291 292 291 289 296 296 302 307 310 312 314 309 307 310 316 305 302 307 311 311 311 317 326 329 327 328 332 332 331 329 330 333 332 331
258 260 267 274 285 296 299 298 294 295 295 292 288 288 295 296 300 296 290 289 291 292 292 293 293 299 306 302 304 310 311 312 308 313 310 311 312 320 323 324 331 331 338 343 341 337 334 332 330 329 328 330 331 331
257 255 260 270 280 290 300 297 295 302 296 292 297 301 294 291 292 288 285 290 289 291 298 302 304 302 309 313 309 311 308 311 307 320 313 312 320 324 328 334 339 337 335 336 337 334 333 331 329 328 327 329 331 333
251 251 256 264 273 284 293 295 296 296 303 301 298 292 291 289 281 283 282 289 291 299 302 304 305 309 313 315 312 311 308 306 318 311 311 319 328 334 332 332 331 333 331 330 330 331 330 329 329 329 329 331 333 334
250 253 257 262 270 280 285 287 295 295 296 293 289 281 282 286 287 289 290 296 302 305 307 307 307 309 313 311 312 309 311 316 310 310 313 326 331 332 332 332 328 323 324 324 325 327 328 329 329 331 332 333 334 334
248 250 255 264 272 282 285 285 288 294 293 289 290 283 283 293 298 301 305 306 308 311 310 310 310 310 308 307 309 310 310 308 312 316 324 330 331 331 330 329 326 323 322 322 324 325 327 329 329 330 333 333 334 335
236 261 272 269 280 285 289 290 291 292 292 291 291 290 296 294 295 299 301 303 309 309 315 314 307 306 303 306 304 303 305 306 314 321 325 327 327 328 326 325 325 324 322 323 324 325 325 326 327 328 332 333 332 337
271 274 261 268 277 288 297 289 291 286 288 289 290 293 295 298 300 302 302 303 310 307 302 307 302 301 310 304 304 308 305 310 316 318 321 322 322 321 322 323 323 324 323 322 322 322 322 324 324 324 327 330 333 339
276 256 236 258 271 289 293 296 293 289 286 288 291 295 296 301 303 306 308 307 305 304 305 301 307 298 299 300 299 304 309 313 314 316 318 318 320 322 322 322 322 322 322 322 322 321 321 321 323 323 325 328 334 337
265 248 202 189 268 297 295 295 298 291 292 298 297 304 303 304 303 306 307 307 305 305 308 307 302 302 300 305 306 308 310 312 314 316 316 317 319 321 321 322 322 322 322 323 324 324 324 324 327 323 321 329 332 338
311 214 189 240 286 295 297 300 304 298 296 302 302 301 304 306 309 307 304 305 303 302 298 299 299 301 305 308 311 312 313 313 314 315 316 319 322 323 323 323 323 323 324 326 328 330 330 329 327 325 329 331 332 336
298 263 261 279 290 294 300 304 302 306 306 305 309 307 311 311 306 307 307 306 302 302 302 303 304 305 307 309 311 312 313 316 316 317 319 320 321 323 324 326 328 328 329 332 333 334 330 324 330 333 335 339 339 355
293 271 285 290 294 296 298 300 306 312 308 308 309 308 307 307 306 305 307 300 302 304 304 305 308 310 311 312 314 315 316 318 319 319 321 322 323 325 326 327 329 333 334 334 335 328 326 335 332 340 342 342 346 347
310 294 297 296 297 300 300 307 303 309 307 311 314 311 310 310 314 321 309 311 310 311 309 309 311 312 312 315 316 316 319 320 322 324 326 326 327 329 327 331 334 337 344 345 344 344 340 350 351 353 3 346 344 341
314 299 302 303 300 303 313 307 313 312 313 312 311 308 310 312 317 311 308 311 313 312 312 312 314 314 316 318 320 323 327 330 330 331 335 334 328 326 331 336 338 342 341 342 345 347 351 356 6 6 354 345 342 342
311 310 310 308 314 311 310 310 309 309 306 308 306 308 314 317 310 310 312 314 316 318 318 318 317 316 317 321 326 331 337 337 334 335 337 337 332 330 330 337 339 344 345 350 353 350 350 350 352 349 351 354 352 352
294 307 317 317 315 310 310 308 308 306 309 309 312 317 319 317 314 317 319 322 326 328 327 326 324 324 325 330 336 335 334 345 342 340 338 340 336 334 328 319 318 333 346 353 352 354 356 0 359 356 353 353 353 351
300 305 316 321 321 316 312 311 311 311 311 312 314 312 310 311 314 318 322 330 331 333 331 336 338 334 328 327 329 332 334 334 333 334 336 338 337 338 339 338 337 335 330 342 352 354 353 354 355 356 353 352 351 351
306 311 298 306 304 306 304 308 309 308 310 313 310 305 308 310 313 320 325 329 332 333 326 323 322 321 321 320 321 325 326 328 329 332 335 340 344 342 339 340 342 341 338 338 344 347 349 350 350 349 350 351 351 355
302 307 306 300 302 308 306 304 302 305 307 306 302 300 302 303 310 309 316 320 322 320 310 310 314 318 317 319 321 323 325 328 328 327 327 331 332 340 333 325 324 329 336 339 338 335 335 337 339 336 336 340 345 348
301 301 301 301 296 297 298 303 306 309 308 304 295 250 247 248 250 312 307 312 321 320 320 321 322 324 324 324 325 327 330 331 333 333 332 330 331 330 332 332 333 338 339 341 341 338 335 334 334 338 339 341 340 340
305 305 300 296 294 295 301 302 303 304 305 302 300 256 246 266 302 318 323 324 325 328 326 328 330 333 335 334 331 329 330 338 336 334 332 332 333 335 337 338 340 344 348 353 353 351 349 345 343 340 336 334 335 335
315 311 302 280 274 306 307 305 301 280 303 300 251 296 283 310 312 317 321 318 321 328 331 334 335 334 334 335 333 341 342 340 339 339 338 337 337 337 338 340 343 347 349 350 350 350 346 344 343 340 335 334 335 338
319 316 313 311 309 307 310 312 308 294 302 262 276 297 295 308 313 322 334 331 325 325 324 323 323 326 328 336 337 342 345 346 345 343 343 342 342 340 340 339 340 340 342 345 346 345 344 343 340 338 337 339 340 341